Location: Azul
(36.7830°S, 59.8500°W)
Time: 20:36:15
(UTC-03:00)

SRMSAT - Pass Details

Date: 01 November 2021
Orbit: 848 x 865 km, 20.0° (Epoch: 27 November)

Event Time Altitude Azimuth Distance (km) Brightness Sun altitude
Exits shadow 04:56:28 10° 328° (NNW) 2,476 ? -11.4°
Maximum altitude 04:59:39 15° 1° (N) 2,148 ? -10.8°
Drops below altitude 10° 05:02:53 10° 34° (NE) 2,479 ? -10.2°
Sets 05:06:35 0° 56° (ENE) 3,411 ? -9.6°
